This is the latest recevied weather packets stored in our database for station/object BMCB-35. If no packets are shown the sender has not sent any weather packets the latest 10 day(s).
| Time | Temp. | Humidity | Pressure | Rain* | Wind** | Luminosity | Snow |
|---|---|---|---|---|---|---|---|
| 1777761009 | 18.33° C | 40% | 1015.2 hPa | 0 mm | - | 0 W/m² | - |
| 1777759815 | 17.22° C | 47% | 1015.4 hPa | 0 mm | - | 0 W/m² | - |
| 1777759212 | 16.67° C | 48% | 1015.5 hPa | 0 mm | - | 0 W/m² | - |
| 1777754405 | 15.56° C | 55% | 1015.7 hPa | 0 mm | - | 0 W/m² | - |
| 1777753236 | 16.11° C | 54% | 1015.6 hPa | 0 mm | - | 0 W/m² | - |
| 1777750239 | 17.22° C | 53% | 1015.3 hPa | 0 mm | - | 0 W/m² | - |
| 1777746639 | 20° C | 48% | 1014.9 hPa | 0 mm | - | 22 W/m² | - |
| 1777743641 | 23.33° C | 36% | 1014.7 hPa | 0 mm | - | 103 W/m² | - |
| 1777740024 | 25° C | 28% | 1014.8 hPa | 0 mm | - | 235 W/m² | - |
| 1777739439 | 25° C | 27% | 1014.9 hPa | 0 mm | - | 247 W/m² | - |
| 1777732233 | 24.44° C | 33% | 1016.5 hPa | 0 mm | - | 555 W/m² | - |
| 1777731024 | 25° C | 35% | 1016.7 hPa | 0 mm | - | 536 W/m² | - |
| 1777730433 | 25° C | 34% | 1016.9 hPa | 0 mm | - | 571 W/m² | - |
| 1777725641 | 24.44° C | 44% | 1017.8 hPa | 0 mm | - | 802 W/m² | - |
| 1777721430 | 22.78° C | 50% | 1019 hPa | 0 mm | - | 734 W/m² | - |
| 1777719037 | 21.67° C | 51% | 1019.5 hPa | 0 mm | - | 723 W/m² | - |
| 1777716013 | 20° C | 52% | 1020.3 hPa | 0 mm | - | 673 W/m² | - |
| 1777714810 | 19.44° C | 53% | 1020.6 hPa | 0 mm | - | 645 W/m² | - |
| 1777711213 | 16.11° C | 54% | 1021.3 hPa | 0 mm | - | 425 W/m² | - |
| 1777707633 | 13.33° C | 59% | 1022.1 hPa | 0 mm | - | 344 W/m² | - |
| 1777700443 | 11.11° C | 66% | 1022.5 hPa | 0 mm | - | 157 W/m² | - |
| 1777700438 | 10.56° C | 69% | 1022.7 hPa | 0 mm | - | 98 W/m² | - |
| 1777696824 | 8.33° C | 75% | 1022.6 hPa | 0 mm | - | 12 W/m² | - |
| 1777695605 | 8.33° C | 74% | 1022.5 hPa | 0 mm | - | 0 W/m² | - |
| 1777695037 | 8.33° C | 74% | 1022.5 hPa | 0 mm | - | 0 W/m² | - |
* Rain latest hour (hover to see other rain measurements)
** Current wind speed in m/s (hover to see current wind gust speed)